Regional Weather Roundup
Issued by NWS Lake Charles, LA

Home | Current Version | Previous Version | Text Only | Print | Product List | Glossary On
Versions: 1 2 3 4 5 6 7 8 9 10 11 12 13 14 15 16 17 18 19 20 21 22 23 24 25 26 27 28
000
ASUS44 KLCH 270710
RWRLCH
REGIONAL WEATHER ROUNDUP
NATIONAL WEATHER SERVICE LAKE CHARLES LA
200 AM CDT SAT MAY 27 2017

Note: "fair" indicates few or no clouds below 12,000 feet with no
significant weather and/or obstructions to visibility.


ACROSS SOUTHEAST TEXAS

CITY           SKY/WX    TMP DP  RH WIND       PRES   REMARKS
BEAUMONT       CLOUDY    78  75  90 S12       29.91S
BEAUMONT CITY  CLOUDY    80  75  87 MISG      29.92S
ORANGE         CLOUDY    79  77  94 S9        29.94S
JASPER           N/A     78  75  90 S7        29.93F
$$

ACROSS CENTRAL LOUISIANA

CITY           SKY/WX    TMP DP  RH WIND       PRES   REMARKS
LEESVILLE      CLOUDY    76  74  92 S10       29.91S
FULLERTON      CLOUDY    76  74  93 VRB5      29.89F FOG
ALEXANDRIA INT CLOUDY    76  73  91 S8        29.90F
ESLER FIELD    CLOUDY    75  73  93 S6        29.92F
DERIDDER       CLOUDY    77  75  95 S8        29.94S
OAKDALE        CLOUDY    76  74  92 S6        29.93S
OPELOUSAS      CLOUDY    76  73  91 S6        29.94F
$$

ACROSS SOUTHWEST AND SOUTH CENTRAL LOUISIANA

CITY           SKY/WX    TMP DP  RH WIND       PRES   REMARKS
SULPHUR        CLOUDY    80  78  94 S12       29.93F
LAKE CHARLES   CLOUDY    79  76  90 S9        29.93F
CHENNAULT INT  RAIN      78  76  94 S10       29.93F
CAMERON PHI      N/A     79  77  94 S15G22    29.92F FOG
DEQUINCY       CLOUDY    77  74  91 S7        29.92F
JENNINGS       CLOUDY    77  75  93 S8        29.94F
LAFAYETTE      CLOUDY    78  76  93 S9        29.96S
NEW IBERIA     CLOUDY    78  74  87 S9        29.96F
ABBEVILLE      NOT AVBL
PATTERSON      CLOUDY    77  76  96 S9        29.97F
SALT POINT       N/A     78  76  93 VRB5      29.95F
$$

SELECTED SITES ACROSS THE REGION

CITY           SKY/WX    TMP DP  RH WIND       PRES   REMARKS
HOUSTON BUSH   CLOUDY    81  75  82 S10       29.90S
HOUSTON HOBBY  CLOUDY    80  76  87 S9        29.90F
GALVESTON      CLOUDY    81  79  94 S17       29.92S
COLLEGE STAT   CLOUDY    79  75  87 S14       29.87F
CONROE         CLOUDY    79  74  84 S12       29.89F
HUNTSVILLE     CLOUDY    79  73  82 S10       29.88S
LUFKIN         CLOUDY    77  73  87 S9        29.88F
SHREVEPORT     CLOUDY    77  73  87 S8        29.89S
MONROE         CLOUDY    78  70  76 S7        29.93S
NATCHEZ MS     CLOUDY    74  70  87 S7        29.95F
BATON ROUGE    CLOUDY    77  72  84 S8        29.96F
N.O. INTL ARPT MOCLDY    77  74  90 S8        29.97F
SLIDELL        CLOUDY    77  73  87 S7        29.97F
$$

MARINE REPORTS

STATION/POSITION TIME  SKY/WX   TEMP    WIND        PRES    VSBY
                                AIR SEA DIR/SP/G
                 (UTC)          (F)     (DEG/KT/KT) (MB)    (MI)
BUOY 30 S HIGH I 0550            79 79  170/ 17/ 21 1013.3
WVE H/P(F/S)=  4/ 6

SEA RIM ST PARK  0600            79     170/ 11/ 16 1014.1F
PORT ARTHUR      0636                   170/  8/ 14   N/A
SABINE PASS N    0636                   170/ 12/ 17   N/A
TEXAS POINT      NOT AVBL
CALCASIEU PASS   0648                   190/ 17/ 20   N/A
LK CHARLES BEACH 0624            79 76              1013.9
MARSH ISLAND     0600            82                   N/A
FRESH WATER LOCK 0648                   150/ 12/ 15   N/A
AMERADA PASS     0648                   140/  5/  9   N/A
$$




USA.gov is the U.S. government's official web portal to all federal, state and local government web resources and services.